Weather History for Storm Lake, IA

Change the Weather History Date:

Sunday, October 6, 2013

  Actual Average Record
Temperature  
Mean Temperature 44 °F -  
Max Temperature 48 °F 68 °F 89 °F (2007)
Min Temperature 39 °F 43 °F 23 °F (2000)
Degree Days  
Heating Degree Days 22    
Moisture  
Dew Point 43 °F    
Average Humidity 94    
Maximum Humidity 100    
Minimum Humidity 76    
Precipitation  
Precipitation 0.00 in - - ()
Sea Level Pressure  
Sea Level Pressure 29.79 in    
Wind  
Wind Speed 9 mph (NW)    
Max Wind Speed 22 mph    
Max Gust Speed 33 mph    
Visibility 8 miles    
Events Rain    
Averages and records for this station are not official NWS values.
T = Trace of Precipitation, MM = Missing Value Source: NWS Daily Summary

Daily Weather History Graph

Daily Weather History Graph

Search for Another Location

Airport:

Trip Planner

Search our weather history database for the weather conditions in past years. The results will help you decide how hot, cold, wet, or windy it might be!

Date:

Astronomy

Oct. 06, 2013 Rise Set
Actual Time 7:24 AM CDT 6:53 PM CDT
Civil Twilight 6:55 AM CDT 7:21 PM CDT
Nautical Twilight 6:23 AM CDT 7:53 PM CDT
Astronomical Twilight 5:50 AM CDT 8:26 PM CDT
Moon 9:12 AM CDT (10/6) 7:49 PM CDT (10/6)
Length of Visible Light 12h 25m
Length of Day
11h 29m
Waxing Crescent, 3% of the Moon is Illuminated
Oct 6
Waxing Crescent
Oct 11
First Quarter
Oct 18
Full
Oct 26
Last Quarter
Nov 3
New

Hourly Weather History & Observations

Time (CDT) Temp. Windchill Dew Point Humidity Pressure Visibility Wind Dir Wind Speed Gust Speed Precip Events Conditions
12:15 AM 39.2 °F 35.0 °F 39.2 °F 100% 29.73 in 3.0 mi SW 5.8 mph - N/A   Light Drizzle
12:35 AM 39.2 °F 34.2 °F 39.2 °F 100% 29.73 in 4.0 mi SW 6.9 mph - N/A   Light Drizzle
12:55 AM 39.2 °F 35.0 °F 39.2 °F 100% 29.73 in 7.0 mi WSW 5.8 mph - N/A   Overcast
1:15 AM 39.2 °F 34.2 °F 39.2 °F 100% 29.74 in 10.0 mi SW 6.9 mph - N/A   Overcast
1:35 AM 39.2 °F 37.0 °F 39.2 °F 100% 29.73 in 10.0 mi WSW 3.5 mph - N/A   Overcast
1:55 AM 39.2 °F 35.9 °F 39.2 °F 100% 29.73 in 10.0 mi West 4.6 mph - N/A   Overcast
2:15 AM 39.2 °F 35.0 °F 39.2 °F 100% 29.73 in 10.0 mi WNW 5.8 mph - N/A   Overcast
2:35 AM 39.2 °F 35.9 °F 39.2 °F 100% 29.73 in 10.0 mi WNW 4.6 mph - N/A   Unknown
2:55 AM 39.2 °F 35.9 °F 39.2 °F 100% 29.73 in 10.0 mi WNW 4.6 mph - N/A   Overcast
3:15 AM 39.2 °F 34.2 °F 39.2 °F 100% 29.73 in 10.0 mi WNW 6.9 mph - N/A   Overcast
3:35 AM 39.2 °F 34.2 °F 39.2 °F 100% 29.73 in 10.0 mi WNW 6.9 mph - N/A   Overcast
3:55 AM 41.0 °F 35.8 °F 39.2 °F 93% 29.73 in 10.0 mi WNW 8.1 mph - N/A   Overcast
4:15 AM 41.0 °F 35.8 °F 39.2 °F 93% 29.74 in 10.0 mi NW 8.1 mph - N/A   Light Drizzle
4:35 AM 41.0 °F 36.4 °F 39.2 °F 93% 29.73 in 8.0 mi NW 6.9 mph - N/A   Light Drizzle
4:55 AM 41.0 °F 36.4 °F 39.2 °F 93% 29.73 in 10.0 mi NW 6.9 mph - N/A   Light Drizzle
5:15 AM 41.0 °F 36.4 °F 39.2 °F 93% 29.73 in 10.0 mi NW 6.9 mph - N/A   Light Drizzle
5:35 AM 41.0 °F 36.4 °F 39.2 °F 93% 29.74 in 10.0 mi NW 6.9 mph - N/A   Overcast
5:55 AM 41.0 °F 35.8 °F 39.2 °F 93% 29.74 in 10.0 mi WNW 8.1 mph - N/A Rain Light Rain
6:15 AM 41.0 °F 35.8 °F 39.2 °F 93% 29.74 in 10.0 mi WNW 8.1 mph - N/A   Overcast
6:35 AM 41.0 °F 36.4 °F 41.0 °F 100% 29.74 in 10.0 mi WNW 6.9 mph 12.7 mph N/A   Overcast
6:55 AM 41.0 °F 37.1 °F 41.0 °F 100% 29.74 in 10.0 mi WNW 5.8 mph - N/A   Overcast
7:15 AM 41.0 °F 37.1 °F 41.0 °F 100% 29.74 in 10.0 mi WNW 5.8 mph - N/A   Overcast
7:35 AM 42.8 °F 38.6 °F 41.0 °F 93% 29.74 in 10.0 mi West 6.9 mph - N/A   Overcast
7:55 AM 42.8 °F 36.6 °F 42.8 °F 100% 29.75 in 9.0 mi WNW 11.5 mph - N/A   Overcast
8:15 AM 42.8 °F 37.5 °F 42.8 °F 100% 29.75 in 10.0 mi WNW 9.2 mph 15.0 mph N/A   Overcast
8:35 AM 42.8 °F 37.0 °F 42.8 °F 100% 29.75 in 3.0 mi WNW 10.4 mph 16.1 mph N/A   Light Drizzle
8:55 AM 42.8 °F 37.5 °F 42.8 °F 100% 29.75 in 2.0 mi WNW 9.2 mph - N/A   Light Drizzle
9:15 AM 44.6 °F 40.2 °F 42.8 °F 93% 29.75 in 4.0 mi WNW 8.1 mph - N/A Rain Light Rain
9:35 AM 44.6 °F 39.2 °F 44.6 °F 100% 29.75 in 7.0 mi WNW 10.4 mph - N/A   Overcast
9:55 AM 44.6 °F 39.7 °F 44.6 °F 100% 29.75 in 1.5 mi NW 9.2 mph - N/A   Light Drizzle
10:15 AM 44.6 °F 39.2 °F 44.6 °F 100% 29.75 in 1.0 mi NW 10.4 mph - N/A   Light Drizzle
10:35 AM 46.4 °F 40.7 °F 46.4 °F 100% 29.75 in 3.0 mi NW 12.7 mph - N/A   Light Drizzle
10:55 AM 46.4 °F 41.1 °F 46.4 °F 100% 29.75 in 1.2 mi NW 11.5 mph 18.4 mph N/A Rain Light Rain
11:15 AM 48.2 °F - 46.4 °F 93% 29.75 in 1.0 mi NW 11.5 mph - N/A   Light Drizzle
11:35 AM 48.2 °F - 48.2 °F 100% 29.75 in 1.5 mi NW 15.0 mph - N/A   Light Drizzle
11:55 AM 48.2 °F - 46.4 °F 93% 29.75 in 2.0 mi NW 17.3 mph 23.0 mph N/A   Light Drizzle
12:15 PM 48.2 °F - 46.4 °F 93% 29.76 in 3.0 mi NW 13.8 mph 21.9 mph N/A   Light Drizzle
12:35 PM 48.2 °F - 46.4 °F 93% 29.76 in 1.8 mi NW 15.0 mph 26.5 mph N/A   Light Drizzle
12:55 PM 48.2 °F - 46.4 °F 93% 29.76 in 2.0 mi NW 13.8 mph 23.0 mph N/A   Light Drizzle
1:15 PM 46.4 °F 39.2 °F 46.4 °F 100% 29.76 in 2.0 mi NW 18.4 mph 26.5 mph N/A   Light Drizzle
1:35 PM 46.4 °F 39.2 °F 46.4 °F 100% 29.76 in 2.5 mi NW 18.4 mph 25.3 mph N/A   Light Drizzle
1:55 PM 46.4 °F 39.0 °F 46.4 °F 100% 29.76 in 6.0 mi NW 19.6 mph 27.6 mph N/A   Light Drizzle
2:15 PM 48.2 °F - 46.4 °F 93% 29.76 in 9.0 mi NW 19.6 mph 26.5 mph N/A   Light Drizzle
2:35 PM 48.2 °F - 46.4 °F 93% 29.77 in 10.0 mi NW 16.1 mph 28.8 mph N/A   Overcast
2:55 PM 48.2 °F - 46.4 °F 93% 29.77 in 8.0 mi NW 21.9 mph - N/A   Light Drizzle
3:15 PM 48.2 °F - 46.4 °F 93% 29.77 in 10.0 mi NNW 21.9 mph 28.8 mph N/A   Overcast
3:35 PM 48.2 °F - 44.6 °F 87% 29.78 in 10.0 mi NNW 20.7 mph 33.4 mph N/A   Overcast
3:55 PM 48.2 °F - 46.4 °F 93% 29.79 in 4.0 mi NNW 20.7 mph 26.5 mph N/A   Light Drizzle
4:15 PM 48.2 °F - 44.6 °F 87% 29.80 in 6.0 mi NNW 17.3 mph 28.8 mph N/A   Light Drizzle
4:35 PM 48.2 °F - 44.6 °F 87% 29.80 in 10.0 mi NNW 21.9 mph 29.9 mph N/A   Overcast
4:55 PM 48.2 °F - 44.6 °F 87% 29.81 in 10.0 mi NNW 20.7 mph 29.9 mph N/A   Overcast
5:15 PM 48.2 °F - 44.6 °F 87% 29.82 in 10.0 mi NW 18.4 mph 26.5 mph N/A   Overcast
5:35 PM 48.2 °F - 44.6 °F 87% 29.83 in 10.0 mi NW 17.3 mph 28.8 mph N/A   Overcast
5:55 PM 48.2 °F - 44.6 °F 87% 29.84 in 10.0 mi NW 16.1 mph 25.3 mph N/A   Overcast
6:15 PM 48.2 °F - 44.6 °F 87% 29.85 in 10.0 mi NW 18.4 mph 28.8 mph N/A   Overcast
6:35 PM 48.2 °F - 44.6 °F 87% 29.85 in 10.0 mi NNW 15.0 mph 26.5 mph N/A   Light Drizzle
6:55 PM 48.2 °F - 44.6 °F 87% 29.86 in 10.0 mi NNW 16.1 mph 23.0 mph N/A   Overcast
7:15 PM 48.2 °F - 46.4 °F 93% 29.87 in 10.0 mi NNW 12.7 mph - N/A   Overcast
7:35 PM 48.2 °F - 46.4 °F 93% 29.88 in 10.0 mi NNW 11.5 mph - N/A   Overcast
7:55 PM 48.2 °F - 46.4 °F 93% 29.89 in 10.0 mi NW 9.2 mph - N/A   Overcast
8:15 PM 48.2 °F - 46.4 °F 93% 29.90 in 10.0 mi NW 6.9 mph - N/A   Overcast
8:35 PM 48.2 °F - 46.4 °F 93% 29.90 in 10.0 mi NW 6.9 mph - N/A   Overcast
8:55 PM 46.4 °F 42.9 °F 46.4 °F 100% 29.91 in 10.0 mi WNW 6.9 mph - N/A   Overcast
9:15 PM 44.6 °F 40.2 °F 44.6 °F 100% 29.91 in 10.0 mi West 8.1 mph - N/A   Mostly Cloudy
9:35 PM 44.6 °F 40.2 °F 44.6 °F 100% 29.91 in 10.0 mi West 8.1 mph - N/A   Partly Cloudy
9:55 PM 42.8 °F 38.0 °F 42.8 °F 100% 29.92 in 10.0 mi WNW 8.1 mph - N/A   Clear
10:15 PM 42.8 °F 37.5 °F 42.8 °F 100% 29.92 in 10.0 mi WNW 9.2 mph - N/A   Clear
10:35 PM 42.8 °F 37.0 °F 41.0 °F 93% 29.93 in 10.0 mi WNW 10.4 mph - N/A   Clear
10:55 PM 44.6 °F 38.4 °F 39.2 °F 81% 29.93 in 10.0 mi WNW 12.7 mph - N/A   Clear
11:15 PM 44.6 °F 38.8 °F 39.2 °F 81% 29.94 in 10.0 mi WNW 11.5 mph - N/A   Clear
11:35 PM 44.6 °F 38.4 °F 37.4 °F 76% 29.94 in 10.0 mi WNW 12.7 mph - N/A   Clear
11:55 PM 44.6 °F 38.4 °F 37.4 °F 76% 29.94 in 10.0 mi NW 12.7 mph 18.4 mph N/A   Clear